Location: Coed Ely
(51.5661°N, 3.4150°W)
Time: 19:55:25
(UTC+00:00)

Cosmos 1818 - Pass Details

Date: 28 January 2021
Orbit: 773 x 800 km, 65.0° (Epoch: 27 February)

Event Time Altitude Azimuth Distance (km) Brightness Sun altitude
Rises 17:35:43 0° 223° (SW) 3,273 8.1 -6.4°
Reaches altitude 10° 17:38:08 10° 225° (SW) 2,352 7.3 -6.8°
Maximum altitude 17:43:33 81° 313° (NW) 812 3.7 -7.5°
Drops below altitude 10° 17:49:03 10° 41° (NE) 2,381 5.5 -8.4°
Enters shadow 17:49:55 - 41° (NE) 2,708 5.8 -8.5°
